Weather History for Sheridan, WY

Change the Weather History Date:

Wednesday, May 29, 2013

  Actual Average Record
Temperature  
Mean Temperature 54 °F 56 °F  
Max Temperature 58 °F 70 °F 94 °F (1919)
Min Temperature 49 °F 42 °F 26 °F (1982)
Degree Days  
Heating Degree Days 11 9  
Month to date heating degree days 306 375  
Since 1 July heating degree days 7398 7476  
Cooling Degree Days 0 0  
Month to date cooling degree days 8 0  
Year to date cooling degree days 8 0  
Growing Degree Days 3 (Base 50)    
Moisture  
Dew Point 50 °F    
Average Humidity 87    
Maximum Humidity 96    
Minimum Humidity 77    
Precipitation  
Precipitation 0.67 in 0.07 in 1.12 in (1938)
Month to date precipitation 2.63 2.19  
Year to date precipitation 6.92 5.87  
Sea Level Pressure  
Sea Level Pressure 29.61 in    
Wind  
Wind Speed 11 mph (NW)    
Max Wind Speed 20 mph    
Max Gust Speed 25 mph    
Visibility 10 miles    
Events Rain    
T = Trace of Precipitation, MM = Missing Value Source: NWS Daily Summary

Daily Weather History Graph

Daily Weather History Graph

Search for Another Location

Airport:

Trip Planner

Search our weather history database for the weather conditions in past years. The results will help you decide how hot, cold, wet, or windy it might be!

Date:

Astronomy

May. 29, 2013 Rise Set
Actual Time 5:26 AM MDT 8:44 PM MDT
Civil Twilight 4:51 AM MDT 9:20 PM MDT
Nautical Twilight 4:04 AM MDT 10:06 PM MDT
Astronomical Twilight 3:07 AM MDT 11:05 PM MDT
Moon 12:02 AM MDT (5/29) 10:36 AM MDT (5/29)
Length of Visible Light 16h 29m
Length of Day
15h 17m
Waning Gibbous, 72% of the Moon is Illuminated
May 29
Waning Gibbous
May 31
Last Quarter
Jun 8
New
Jun 16
First Quarter
Jun 23
Full

Hourly Weather History & Observations

Time (MDT) Temp. Dew Point Humidity Pressure Visibility Wind Dir Wind Speed Gust Speed Precip Events Conditions
12:53 AM 53.1 °F 50.0 °F 89% 29.64 in 10.0 mi SW 3.5 mph - 0.00 in   Overcast
1:53 AM 55.0 °F 48.0 °F 77% 29.60 in 10.0 mi Calm Calm - N/A   Overcast
2:53 AM 54.0 °F 50.0 °F 86% 29.60 in 10.0 mi Calm Calm - N/A   Overcast
3:53 AM 53.1 °F 48.9 °F 86% 29.61 in 10.0 mi NNE 3.5 mph - N/A   Mostly Cloudy
4:53 AM 50.0 °F 48.0 °F 93% 29.59 in 10.0 mi West 3.5 mph - N/A   Partly Cloudy
5:28 AM 51.8 °F 48.2 °F 88% 29.65 in 10.0 mi North 5.8 mph - N/A   Overcast
5:53 AM 52.0 °F 48.9 °F 89% 29.60 in 10.0 mi North 5.8 mph - N/A   Overcast
6:53 AM 52.0 °F 48.9 °F 89% 29.63 in 10.0 mi WNW 5.8 mph - N/A   Overcast
7:53 AM 51.1 °F 50.0 °F 96% 29.63 in 10.0 mi WNW 6.9 mph - 0.00 in Rain Light Rain
8:41 AM 51.8 °F 51.8 °F 100% 29.65 in 10.0 mi WNW 6.9 mph - 0.00 in   Overcast
8:53 AM 53.1 °F 51.1 °F 93% 29.62 in 10.0 mi WNW 8.1 mph - 0.00 in   Mostly Cloudy
9:02 AM 53.6 °F 51.8 °F 94% 29.65 in 10.0 mi WNW 8.1 mph - N/A   Overcast
9:25 AM 53.6 °F 50.0 °F 88% 29.65 in 10.0 mi WNW 6.9 mph - N/A   Overcast
9:53 AM 53.1 °F 51.1 °F 93% 29.60 in 10.0 mi NNW 5.8 mph - 0.01 in Rain Light Rain
10:03 AM 53.6 °F 51.8 °F 94% 29.63 in 10.0 mi NW 9.2 mph - 0.00 in Rain Light Rain
10:53 AM 57.0 °F 52.0 °F 83% 29.58 in 10.0 mi NNW 8.1 mph - 0.01 in   Overcast
11:14 AM 57.2 °F 51.8 °F 82% 29.62 in 10.0 mi Variable 5.8 mph - N/A   Overcast
11:53 AM 55.9 °F 51.1 °F 84% 29.58 in 10.0 mi North 5.8 mph - N/A   Overcast
12:30 PM 53.6 °F 50.0 °F 88% 29.62 in 10.0 mi NNW 9.2 mph - N/A   Overcast
12:37 PM 53.6 °F 50.0 °F 88% 29.62 in 10.0 mi NNW 8.1 mph - N/A   Overcast
12:44 PM 53.6 °F 51.8 °F 94% 29.62 in 10.0 mi NNW 6.9 mph - N/A   Overcast
12:53 PM 54.0 °F 51.1 °F 90% 29.59 in 10.0 mi NW 9.2 mph - N/A   Overcast
1:25 PM 53.6 °F 51.8 °F 94% 29.62 in 10.0 mi WNW 11.5 mph - 0.00 in Rain Light Rain
1:53 PM 53.1 °F 51.1 °F 93% 29.58 in 10.0 mi WNW 11.5 mph - 0.01 in Rain Light Rain
2:45 PM 51.8 °F 50.0 °F 94% 29.62 in 9.0 mi NW 13.8 mph - 0.42 in Rain Heavy Rain
2:53 PM 52.0 °F 50.0 °F 93% 29.58 in 10.0 mi WNW 13.8 mph - 0.46 in Rain Heavy Rain
3:26 PM 53.6 °F 51.8 °F 94% 29.61 in 10.0 mi NW 15.0 mph - 0.05 in   Overcast
3:53 PM 54.0 °F 51.1 °F 90% 29.57 in 10.0 mi NW 17.3 mph - 0.05 in   Overcast
4:53 PM 53.1 °F 48.9 °F 86% 29.58 in 10.0 mi NW 17.3 mph - N/A   Overcast
5:53 PM 53.1 °F 50.0 °F 89% 29.57 in 10.0 mi NNW 13.8 mph 24.2 mph 0.02 in   Overcast
6:53 PM 52.0 °F 48.9 °F 89% 29.57 in 10.0 mi NW 17.3 mph 24.2 mph 0.00 in   Overcast
7:53 PM 51.1 °F 48.0 °F 89% 29.61 in 10.0 mi WNW 18.4 mph - 0.00 in Rain Light Rain
8:53 PM 51.1 °F 48.0 °F 89% 29.59 in 10.0 mi NW 18.4 mph 23.0 mph 0.01 in Rain Light Rain
9:53 PM 50.0 °F 46.9 °F 89% 29.60 in 10.0 mi NW 16.1 mph 24.2 mph 0.00 in   Overcast
10:53 PM 50.0 °F 46.9 °F 89% 29.60 in 10.0 mi NW 13.8 mph - 0.03 in Rain Light Rain
11:53 PM 48.9 °F 46.9 °F 93% 29.61 in 10.0 mi NW 16.1 mph - 0.05 in Rain Light Rain